When you browse on this site, cookies collect data to enhance your experience and personalize the content and advertising you see.
Visit our Privacy Policy to learn more. By continuing to use the site, you agree to this use of cookies and data.
  • In Hungary
  • List of Countries
  • For 7 days
  • Water Temperature
  • Weather Map
  • News
  • Weather Widgets
  • user-avatar
    Login

    Hourly Weather Batiha

    Today, 19 September, Thursday

    Time Temperature Precipitation Wind Pressure Humidity
    00:00 +4°C° 0 mm 3 mps 737 mmHg 96%
    01:00 +4°C° 0 mm 3 mps 738 mmHg 95%
    02:00 +5°C° 0 mm 3 mps 738 mmHg 93%
    03:00 +4°C° 0 mm 3 mps 739 mmHg 93%
    04:00 +4°C° 0 mm 3 mps 739 mmHg 93%
    05:00 +3°C° 0 mm 3 mps 740 mmHg 93%
    06:00 +3°C° 0 mm 3 mps 741 mmHg 91%
    07:00 +3°C° 0 mm 3 mps 741 mmHg 89%
    08:00 +3°C° 0 mm 3 mps 742 mmHg 87%
    09:00 +4°C° 0 mm 3 mps 742 mmHg 78%
    10:00 +5°C° 0 mm 3 mps 742 mmHg 69%
    11:00 +7°C° 0 mm 3 mps 743 mmHg 60%
    12:00 +8°C° 0 mm 3 mps 743 mmHg 58%
    13:00 +8°C° 0 mm 3 mps 743 mmHg 55%
    14:00 +9°C° 0 mm 3 mps 744 mmHg 52%
    15:00 +8°C° 0 mm 2 mps 744 mmHg 58%
    16:00 +7°C° 0 mm 2 mps 744 mmHg 64%
    17:00 +7°C° 0 mm 1 mps 745 mmHg 70%
    18:00 +6°C° 0 mm 1 mps 745 mmHg 74%
    19:00 +6°C° 0 mm 1 mps 745 mmHg 77%
    20:00 +5°C° 0 mm 1 mps 745 mmHg 80%
    21:00 +4°C° 0 mm 1 mps 745 mmHg 82%
    22:00 +4°C° 0 mm 1 mps 745 mmHg 84%
    23:00 +4°C° 0 mm 1 mps 746 mmHg 85%

    Tomorrow, 20 September, Friday

    Time Temperature Precipitation Wind Pressure Humidity
    00:00 +3°C° 0 mm 1 mps 746 mmHg 86%
    01:00 +3°C° 0 mm 1 mps 746 mmHg 86%
    02:00 +3°C° 0 mm 1 mps 746 mmHg 86%
    03:00 +3°C° 0 mm 1 mps 746 mmHg 87%
    04:00 +3°C° 0 mm 1 mps 745 mmHg 87%
    05:00 +3°C° 0 mm 1 mps 745 mmHg 88%
    06:00 +4°C° 0 mm 1 mps 745 mmHg 83%
    07:00 +5°C° 0 mm 1 mps 745 mmHg 78%
    08:00 +6°C° 0 mm 1 mps 745 mmHg 72%
    09:00 +7°C° 0 mm 1 mps 745 mmHg 67%
    10:00 +8°C° 0 mm 1 mps 745 mmHg 62%
    11:00 +9°C° 0 mm 1 mps 745 mmHg 57%
    12:00 +9°C° 0.1 mm 2 mps 745 mmHg 57%
    13:00 +9°C° 0.1 mm 2 mps 745 mmHg 57%
    14:00 +9°C° 0.1 mm 2 mps 745 mmHg 57%
    15:00 +8°C° 0.3 mm 2 mps 745 mmHg 66%
    16:00 +7°C° 0.3 mm 2 mps 745 mmHg 75%
    17:00 +6°C° 0.3 mm 2 mps 745 mmHg 85%
    18:00 +5°C° 0 mm 2 mps 745 mmHg 88%
    19:00 +4°C° 0 mm 2 mps 745 mmHg 92%
    20:00 +2°C° 0 mm 2 mps 746 mmHg 95%
    21:00 +2°C° 0 mm 2 mps 746 mmHg 96%
    22:00 +2°C° 0 mm 2 mps 746 mmHg 97%
    23:00 +1°C° 0 mm 2 mps 746 mmHg 98%

    Day after tomorrow, 21 September, Saturday

    Time Temperature Precipitation Wind Pressure Humidity
    00:00 +1°C° 0 mm 2 mps 746 mmHg 97%
    01:00 -1°C° 0 mm 2 mps 746 mmHg 97%
    02:00 +1°C° 0 mm 1 mps 746 mmHg 96%
    03:00 +1°C° 0 mm 1 mps 746 mmHg 95%
    04:00 0°C° 0 mm 1 mps 746 mmHg 95%
    05:00 0°C° 0 mm 1 mps 746 mmHg 94%
    06:00 +1°C° 0 mm 1 mps 746 mmHg 90%
    07:00 +2°C° 0 mm 2 mps 746 mmHg 87%
    08:00 +3°C° 0 mm 2 mps 746 mmHg 83%
    09:00 +4°C° 0 mm 2 mps 745 mmHg 76%
    10:00 +6°C° 0 mm 2 mps 745 mmHg 69%
    11:00 +7°C° 0 mm 3 mps 745 mmHg 63%
    12:00 +7°C° 0 mm 3 mps 744 mmHg 62%
    13:00 +7°C° 0 mm 3 mps 744 mmHg 62%
    14:00 +6°C° 0 mm 4 mps 743 mmHg 62%
    15:00 +5°C° 0.1 mm 3 mps 742 mmHg 72%
    16:00 +4°C° 0.1 mm 3 mps 742 mmHg 82%
    17:00 +3°C° 0.1 mm 3 mps 741 mmHg 92%
    18:00 +3°C° 0.2 mm 3 mps 740 mmHg 93%
    19:00 +3°C° 0.2 mm 3 mps 739 mmHg 94%
    20:00 +3°C° 0.2 mm 4 mps 739 mmHg 94%
    21:00 +3°C° 0.5 mm 3 mps 737 mmHg 95%
    22:00 +3°C° 0.5 mm 3 mps 736 mmHg 95%
    23:00 +3°C° 0.5 mm 3 mps 734 mmHg 96%

    22 September, Sunday

    Time Temperature Precipitation Wind Pressure Humidity
    00:00 +4°C° 1.2 mm 3 mps 733 mmHg 97%
    01:00 +4°C° 1.2 mm 3 mps 731 mmHg 97%
    02:00 +4°C° 1.2 mm 3 mps 730 mmHg 98%
    03:00 +4°C° 1.5 mm 3 mps 730 mmHg 97%
    04:00 +4°C° 1.5 mm 4 mps 729 mmHg 96%
    05:00 +3°C° 1.5 mm 5 mps 729 mmHg 96%
    06:00 +2°C° 1.3 mm 6 mps 730 mmHg 95%
    07:00 +2°C° 1.3 mm 7 mps 732 mmHg 95%
    08:00 0°C° 1.3 mm 9 mps 733 mmHg 94%
    09:00 0°C° 0.3 mm 8 mps 735 mmHg 94%
    10:00 0°C° 0.3 mm 8 mps 737 mmHg 93%
    11:00 0°C° 0.3 mm 8 mps 738 mmHg 93%
    12:00 0°C° 0.1 mm 7 mps 740 mmHg 89%
    13:00 +2°C° 0.1 mm 6 mps 741 mmHg 85%
    14:00 +3°C° 0.1 mm 6 mps 742 mmHg 80%
    15:00 +2°C° 0.1 mm 5 mps 743 mmHg 81%
    16:00 +3°C° 0.1 mm 4 mps 743 mmHg 81%
    17:00 +2°C° 0.1 mm 3 mps 744 mmHg 82%
    18:00 +2°C° 0 mm 3 mps 744 mmHg 85%
    19:00 +1°C° 0 mm 3 mps 745 mmHg 87%
    20:00 +1°C° 0 mm 3 mps 745 mmHg 90%
    21:00 0°C° 0 mm 3 mps 745 mmHg 91%
    22:00 0°C° 0 mm 3 mps 746 mmHg 91%
    23:00 -1°C° 0 mm 3 mps 746 mmHg 92%

    23 September, Monday

    Time Temperature Precipitation Wind Pressure Humidity
    00:00 -1°C° 0 mm 3 mps 746 mmHg 92%
    01:00 -1°C° 0 mm 3 mps 746 mmHg 93%
    02:00 -2°C° 0 mm 3 mps 747 mmHg 94%
    03:00 -2°C° 0 mm 3 mps 747 mmHg 94%
    04:00 -2°C° 0 mm 3 mps 747 mmHg 95%
    05:00 -2°C° 0 mm 3 mps 747 mmHg 95%
    06:00 -1°C° 0 mm 3 mps 747 mmHg 90%
    07:00 0°C° 0 mm 3 mps 748 mmHg 85%
    08:00 +1°C° 0 mm 3 mps 748 mmHg 80%
    09:00 +2°C° 0 mm 3 mps 748 mmHg 74%
    10:00 +3°C° 0 mm 3 mps 748 mmHg 68%
    11:00 +5°C° 0 mm 3 mps 748 mmHg 63%
    12:00 +5°C° 0.1 mm 3 mps 747 mmHg 62%
    13:00 +7°C° 0.1 mm 3 mps 747 mmHg 61%
    14:00 +7°C° 0.1 mm 3 mps 747 mmHg 61%
    15:00 +5°C° 0.1 mm 3 mps 747 mmHg 68%
    16:00 +5°C° 0.1 mm 2 mps 746 mmHg 75%
    17:00 +4°C° 0.1 mm 2 mps 746 mmHg 82%
    18:00 +3°C° 0 mm 2 mps 746 mmHg 86%
    19:00 +2°C° 0 mm 2 mps 746 mmHg 90%
    20:00 +1°C° 0 mm 2 mps 746 mmHg 94%
    21:00 -1°C° 0 mm 2 mps 746 mmHg 95%
    22:00 -1°C° 0 mm 2 mps 746 mmHg 95%
    23:00 -1°C° 0 mm 2 mps 746 mmHg 96%

    24 September, Tuesday

    Time Temperature Precipitation Wind Pressure Humidity
    00:00 0°C° 0 mm 1 mps 746 mmHg 96%
    01:00 0°C° 0 mm 1 mps 745 mmHg 96%
    02:00 0°C° 0 mm 1 mps 745 mmHg 96%
    03:00 0°C° 0 mm 1 mps 745 mmHg 96%
    04:00 0°C° 0 mm 1 mps 745 mmHg 97%
    05:00 -1°C° 0 mm 1 mps 745 mmHg 97%
    06:00 +1°C° 0 mm 1 mps 745 mmHg 91%
    07:00 +2°C° 0 mm 1 mps 745 mmHg 85%
    08:00 +4°C° 0 mm 1 mps 745 mmHg 79%
    09:00 +5°C° 0 mm 0 mps 745 mmHg 72%
    10:00 +6°C° 0 mm 0 mps 745 mmHg 64%
    11:00 +8°C° 0 mm 0 mps 745 mmHg 56%
    12:00 +8°C° 0 mm 0 mps 744 mmHg 54%
    13:00 +8°C° 0 mm 0 mps 744 mmHg 52%
    14:00 +9°C° 0 mm 1 mps 744 mmHg 51%
    15:00 +8°C° 0 mm 1 mps 744 mmHg 56%
    16:00 +7°C° 0 mm 1 mps 744 mmHg 61%
    17:00 +6°C° 0 mm 1 mps 744 mmHg 66%
    18:00 +5°C° 0 mm 1 mps 744 mmHg 67%
    19:00 +5°C° 0 mm 1 mps 744 mmHg 68%
    20:00 +4°C° 0 mm 1 mps 744 mmHg 69%
    21:00 +4°C° 0 mm 1 mps 744 mmHg 70%
    22:00 +4°C° 0 mm 1 mps 744 mmHg 71%
    23:00 +3°C° 0 mm 1 mps 745 mmHg 73%
    Show more